Volver al catálogo

FENGYUN 1C DEB

ActivoSSO
NORAD 29805·DEBRIS·🇨🇳 China

Lanzado May 10, 1999 desde Taiyuan Satellite Launch Center

Loading…

Próximos Pases (próximas 24 horas)

TLE

ActualizadoSource: Space-Track

Época: Sep 14, 2026, 01:32 UTC

1 29805U 99025CX  26257.06433449  .00000087  00000-0  12670-3 0  9998
2 29805  99.4173 309.2787 0187668 232.6170 125.7762 13.72734901984808

Sigue FENGYUN 1C DEB en tiempo real con AllMySat

Download on the App Store